| time (UTC) | temp F | wind direction | speed MPH | gust MPH | rain 1hr in | rain 24hr in | rain mn in | humidity % | barometer mb |
| 20260502213016 | 52 | 0.0 | 0.0 | 0.00 | 0.00 | 0.00 | 47 | 773.8 | |
| 20260502211551 | 53 | 0.0 | 0.0 | 0.00 | 0.00 | 0.00 | 44 | 773.0 | |
| 20260502210042 | 53 | 0.0 | 0.0 | 0.00 | 0.00 | 0.00 | 42 | 772.3 | |
| 20260502204527 | 54 | 0.0 | 0.0 | 0.00 | 0.00 | 0.00 | 40 | 773.1 | |
| 20260502203016 | 55 | 0.0 | 0.0 | 0.00 | 0.00 | 0.00 | 37 | 774.0 | |
| 20260502201551 | 56 | 0.0 | 0.0 | 0.00 | 0.00 | 0.00 | 34 | 773.2 | |
| 20260502200055 | 57 | 0.0 | 0.0 | 0.00 | 0.00 | 0.00 | 30 | 773.2 | |
| 20260502194527 | 58 | 0.0 | 0.0 | 0.00 | 0.00 | 0.00 | 27 | 773.2 | |
| 20260502193105 | 59 | 0.0 | 0.0 | 0.00 | 0.00 | 0.00 | 24 | 772.4 | |
| 20260502191551 | 61 | 0.0 | 0.0 | 0.00 | 0.00 | 0.00 | 20 | 773.2 | |
| 20260502190041 | 62 | 0.0 | 0.0 | 0.00 | 0.00 | 0.00 | 15 | 772.4 | |
| 20260502184528 | 64 | 0.0 | 0.0 | 0.00 | 0.00 | 0.00 | 14 | 772.3 | |
| 20260502183015 | 65 | 0.0 | 0.0 | 0.00 | 0.00 | 0.00 | 10 | 772.3 | |
| 20260502181551 | 67 | 0.0 | 0.0 | 0.00 | 0.00 | 0.00 | 771.5 | ||
| 20260502163015 | 73 | 0.0 | 0.0 | 0.00 | 0.00 | 0.00 | 763.8 | ||
| 20260502161551 | 74 | 0.0 | 0.0 | 0.00 | 0.00 | 0.00 | 762.3 | ||
| 20260502151551 | 77 | 0.0 | 0.0 | 0.00 | 0.00 | 0.00 | 756.3 | ||
| 20260502130129 | 76 | 0.0 | 0.0 | 0.00 | 0.00 | 0.00 | 758.5 | ||
| 20260502123015 | 75 | 0.0 | 0.0 | 0.00 | 0.00 | 0.00 | 760.2 | ||
| 20260502121551 | 74 | 0.0 | 0.0 | 0.00 | 0.00 | 0.00 | 760.4 | ||
| 20260502120130 | 74 | 0.0 | 0.0 | 0.00 | 0.00 | 0.00 | 760.4 | ||
| 20260502114527 | 74 | 0.0 | 0.0 | 0.00 | 0.00 | 0.00 | 761.2 | ||
| 20260502113015 | 74 | 0.0 | 0.0 | 0.00 | 0.00 | 0.00 | 762.9 | ||
| 20260502111550 | 73 | 0.0 | 0.0 | 0.00 | 0.00 | 0.00 | 762.2 | ||
| 20260502110041 | 72 | 0.0 | 0.0 | 0.00 | 0.00 | 0.00 | 760.7 | ||
| 20260502104615 | 72 | 0.0 | 0.0 | 0.00 | 0.00 | 0.00 | 760.8 | ||
| 20260502103015 | 71 | 0.0 | 0.0 | 0.00 | 0.00 | 0.00 | 760.9 | ||
| 20260502101550 | 71 | 0.0 | 0.0 | 0.00 | 0.00 | 0.00 | 10 | 759.3 | |
| 20260502100129 | 70 | 0.0 | 0.0 | 0.00 | 0.00 | 0.00 | 12 | 759.4 | |
| 20260502070041 | 57 | 0.0 | 0.0 | 0.00 | 0.00 | 0.00 | 45 | 754.6 | |
| 20260502064526 | 56 | 0.0 | 0.0 | 0.00 | 0.00 | 0.00 | 48 | 752.3 | |
| 20260502063014 | 55 | 0.0 | 0.0 | 0.00 | 0.00 | 0.00 | 49 | 752.3 | |
| 20260502061551 | 54 | 0.0 | 0.0 | 0.00 | 0.00 | 0.00 | 52 | 751.5 | |
| 20260502060040 | 52 | 0.0 | 0.0 | 0.00 | 0.00 | 0.00 | 61 | 750.0 | |
| 20260502054526 | 49 | 0.0 | 0.0 | 0.00 | 0.00 | 0.00 | 62 | 750.8 | |
| 20260502053105 | 47 | 0.0 | 0.0 | 0.00 | 0.00 | 0.00 | 64 | 750.8 | |
| 20260502051550 | 46 | 0.0 | 0.0 | 0.00 | 0.00 | 0.00 | 66 | 750.8 | |
| 20260502050040 | 45 | 0.0 | 0.0 | 0.00 | 0.00 | 0.00 | 68 | 749.2 | |
| 20260502044526 | 43 | 0.0 | 0.0 | 0.00 | 0.00 | 0.00 | 69 | 744.5 | |
| 20260502043014 | 42 | 0.0 | 0.0 | 0.00 | 0.00 | 0.00 | 68 | 741.3 | |
| 20260502041550 | 42 | 0.0 | 0.0 | 0.00 | 0.00 | 0.00 | 68 | 742.0 | |
| 20260502040129 | 42 | 0.0 | 0.0 | 0.00 | 0.00 | 0.00 | 67 | 741.3 | |
| 20260502034526 | 42 | 0.0 | 0.0 | 0.00 | 0.00 | 0.00 | 67 | 742.1 | |
| 20260502033014 | 42 | 0.0 | 0.0 | 0.00 | 0.00 | 0.00 | 66 | 742.0 | |
| 20260502031726 | 43 | 0.0 | 0.0 | 0.00 | 0.00 | 0.00 | 66 | 743.5 | |
| 20260502030040 | 43 | 0.0 | 0.0 | 0.00 | 0.00 | 0.00 | 66 | 742.8 | |
| 20260502024905 | 43 | 0.0 | 0.0 | 0.00 | 0.00 | 0.00 | 65 | 743.6 | |
| 20260502023014 | 43 | 0.0 | 0.0 | 0.00 | 0.00 | 0.00 | 64 | 744.4 | |
| 20260502021550 | 44 | 0.0 | 0.0 | 0.00 | 0.00 | 0.00 | 63 | 744.5 | |
| 20260502020128 | 44 | 0.0 | 0.0 | 0.00 | 0.00 | 0.00 | 63 | 746.0 | |
| 20260502014839 | 44 | 0.0 | 0.0 | 0.00 | 0.00 | 0.00 | 62 | 746.0 | |
| 20260502013014 | 45 | 0.0 | 0.0 | 0.00 | 0.00 | 0.00 | 61 | 747.6 | |
| 20260502011550 | 45 | 0.0 | 0.0 | 0.00 | 0.00 | 0.00 | 61 | 748.4 | |
| 20260502010128 | 45 | 0.0 | 0.0 | 0.00 | 0.00 | 0.00 | 60 | 747.6 | |
| 20260502004706 | 46 | 0.0 | 0.0 | 0.00 | 0.00 | 0.00 | 60 | 747.6 | |
| 20260502003014 | 46 | 0.0 | 0.0 | 0.00 | 0.00 | 0.00 | 60 | 748.5 | |
| 20260502001550 | 46 | 0.0 | 0.0 | 0.00 | 0.00 | 0.00 | 59 | 749.3 | |
| 20260502000041 | 46 | 0.0 | 0.0 | 0.00 | 0.00 | 0.00 | 58 | 749.3 | |
| 20260501234705 | 47 | 0.0 | 0.0 | 0.00 | 0.00 | 0.00 | 57 | 751.7 | |
| 20260501233014 | 47 | 0.0 | 0.0 | 0.00 | 0.00 | 0.00 | 56 | 752.5 | |
| 20260501231638 | 48 | 0.0 | 0.0 | 0.00 | 0.00 | 0.00 | 55 | 752.4 | |
| 20260501230041 | 48 | 0.0 | 0.0 | 0.00 | 0.00 | 0.00 | 54 | 753.2 | |
| 20260501224525 | 49 | 0.0 | 0.0 | 0.00 | 0.00 | 0.00 | 53 | 754.8 | |
| 20260501223106 | 49 | 0.0 | 0.0 | 0.00 | 0.00 | 0.00 | 51 | 756.4 | |
| 20260501221550 | 49 | 0.0 | 0.0 | 0.00 | 0.00 | 0.00 | 48 | 757.9 | |
| 20260501220128 | 50 | 0.0 | 0.0 | 0.00 | 0.00 | 0.00 | 45 | 758.6 | |
| 20260501214526 | 50 | 0.0 | 0.0 | 0.00 | 0.00 | 0.00 | 43 | 760.1 |